Oakland, MD

11:29 PM EST on February 19, 2018 (GMT -0500)
Oakland

Weather History for K2G4 - July, 2013

Change the Weather History Date:

Saturday, July 6, 2013

  Actual Average (KMGW) Record (KMGW)
Temperature  
Mean Temperature 71 °F -  
Max Temperature 80 °F 83 °F 98 °F (2012)
Min Temperature 62 °F 61 °F 40 °F (1895)
Cooling Degree Days 6    
Growing Degree Days 21 (Base 50)    
Moisture  
Dew Point 67 °F    
Average Humidity 86    
Maximum Humidity 100    
Minimum Humidity 65    
Precipitation  
Precipitation 0.00 in - - ()
Sea Level Pressure  
Sea Level Pressure 30.26 in    
Wind  
Wind Speed 6 mph (South)    
Max Wind Speed 12 mph    
Max Gust Speed 17 mph    
Visibility 10 miles    
Events      
Averages and records for this station are not official NWS values.
T = Trace of Precipitation, MM = Missing Value Source: NWS Daily Summary

Daily Weather History Graph

Daily Weather History Graph

Search for Another Location

Airport or City:

Trip Planner

Search our weather history database for the weather conditions in past years. The results will help you decide how hot, cold, wet, or windy it might be!

Date:

Astronomy

Jul. 06, 2013 Rise Set
Actual Time 5:56 AM EDT 8:47 PM EDT
Civil Twilight 5:24 AM EDT 9:19 PM EDT
Nautical Twilight 4:43 AM EDT 10:00 PM EDT
Astronomical Twilight 3:57 AM EDT 10:46 PM EDT
Moon 4:40 AM EDT (7/6) 7:28 PM EDT (7/6)
Length of Visible Light 15h 55m
Length of Day
14h 51m
Waning Crescent, 2% of the Moon is Illuminated
Jul 6
Waning Crescent
Jul 8
New
Jul 15
First Quarter
Jul 22
Full
Jul 29
Last Quarter

Hourly Weather History & Observations

Time (EDT) Temp. Heat Index Dew Point Humidity Pressure Visibility Wind Dir Wind Speed Gust Speed Precip Events Conditions
12:15 AM 64.4 °F - 64.4 °F 100% 30.29 in 10.0 mi SSW 8.1 mph - N/A   Clear
12:35 AM 66.2 °F - 66.2 °F 100% 30.29 in 10.0 mi SSW 9.2 mph - N/A   Clear
12:55 AM 64.4 °F - 64.4 °F 100% 30.29 in 10.0 mi SSW 8.1 mph - N/A   Clear
1:15 AM 64.4 °F - 64.4 °F 100% 30.29 in 10.0 mi SSW 5.8 mph - N/A   Clear
1:35 AM 64.4 °F - 64.4 °F 100% 30.29 in 10.0 mi SW 5.8 mph - N/A   Clear
1:55 AM 64.4 °F - 64.4 °F 100% 30.29 in 10.0 mi SW 5.8 mph - N/A   Clear
2:15 AM 64.4 °F - 64.4 °F 100% 30.29 in 10.0 mi SW 5.8 mph - N/A   Clear
2:35 AM 64.4 °F - 64.4 °F 100% 30.28 in 10.0 mi SW 4.6 mph - N/A   Clear
2:55 AM 64.4 °F - 64.4 °F 100% 30.28 in 10.0 mi SW 5.8 mph - N/A   Clear
3:15 AM 64.4 °F - 64.4 °F 100% 30.28 in 10.0 mi WSW 5.8 mph - N/A   Clear
3:35 AM 64.4 °F - 64.4 °F 100% 30.28 in 10.0 mi West 4.6 mph - N/A   Clear
3:55 AM 64.4 °F - 64.4 °F 100% 30.29 in 10.0 mi West 5.8 mph - N/A   Clear
4:15 AM 64.4 °F - 64.4 °F 100% 30.29 in 10.0 mi West 3.5 mph - N/A   Clear
4:35 AM 62.6 °F - 62.6 °F 100% 30.29 in 10.0 mi Calm Calm - N/A   Clear
4:55 AM 62.6 °F - 62.6 °F 100% 30.29 in 10.0 mi WSW 3.5 mph - N/A   Clear
5:15 AM 62.6 °F - 62.6 °F 100% 30.29 in 10.0 mi WSW 4.6 mph - N/A   Clear
5:35 AM 62.6 °F - 62.6 °F 100% 30.29 in 10.0 mi West 3.5 mph - N/A   Clear
5:55 AM 64.4 °F - 64.4 °F 100% 30.29 in 10.0 mi WSW 3.5 mph - N/A   Clear
6:15 AM 62.6 °F - 62.6 °F 100% 30.30 in 10.0 mi SSW 4.6 mph - N/A   Clear
6:35 AM 62.6 °F - 62.6 °F 100% 30.30 in 10.0 mi South 4.6 mph - N/A   Clear
6:55 AM 64.4 °F - - N/A% 30.30 in 10.0 mi SSE 4.6 mph - N/A   Clear
7:15 AM 64.4 °F - 64.4 °F 100% 30.30 in 10.0 mi South 3.5 mph - N/A   Clear
7:35 AM 66.2 °F - 66.2 °F 100% 30.30 in 10.0 mi South 4.6 mph - N/A   Clear
8:00 AM 68.0 °F - 68.0 °F 100% 30.31 in 10.0 mi South 5.8 mph - N/A   Clear
8:20 AM 68.0 °F - 68.0 °F 100% 30.32 in 10.0 mi SSW 8.1 mph - N/A   Clear
8:40 AM 69.8 °F - 69.8 °F 100% 30.32 in 10.0 mi SSW 5.8 mph - N/A   Clear
9:00 AM 69.8 °F - 69.8 °F 100% 30.31 in 10.0 mi SSW 3.5 mph - N/A   Clear
9:20 AM 71.6 °F - 71.6 °F 100% 30.31 in 10.0 mi Calm Calm - N/A   Clear
9:40 AM 71.6 °F - 71.6 °F 100% 30.31 in 10.0 mi South 3.5 mph - N/A   Scattered Clouds
10:00 AM 71.6 °F - 69.8 °F 94% 30.31 in 10.0 mi ESE 3.5 mph - N/A   Scattered Clouds
10:20 AM 73.4 °F - 69.8 °F 88% 30.31 in 10.0 mi South 3.5 mph - N/A   Scattered Clouds
10:40 AM 73.4 °F - 69.8 °F 88% 30.31 in 10.0 mi SSW 4.6 mph - N/A   Clear
11:00 AM 75.2 °F - 66.2 °F 73% 30.31 in 10.0 mi South 5.8 mph - N/A   Clear
11:20 AM 73.4 °F - 68.0 °F 83% 30.31 in 10.0 mi Calm Calm - N/A   Clear
11:40 AM 77.0 °F - 68.0 °F 74% 30.31 in 10.0 mi South 5.8 mph - N/A   Scattered Clouds
12:00 PM 77.0 °F - 66.2 °F 69% 30.30 in 10.0 mi SSE 6.9 mph - N/A   Scattered Clouds
12:20 PM 77.0 °F - 68.0 °F 74% 30.29 in 10.0 mi South 5.8 mph - N/A   Scattered Clouds
12:40 PM 78.8 °F - 68.0 °F 69% 30.28 in 10.0 mi South 5.8 mph - N/A   Scattered Clouds
1:00 PM 78.8 °F - 68.0 °F 69% 30.28 in 10.0 mi South 4.6 mph - N/A   Scattered Clouds
1:20 PM 78.8 °F - 69.8 °F 74% 30.27 in 10.0 mi SE 6.9 mph - N/A   Mostly Cloudy
1:40 PM 78.8 °F - 69.8 °F 74% 30.26 in 10.0 mi ESE 8.1 mph - N/A   Scattered Clouds
2:00 PM 80.6 °F 83.9 °F 69.8 °F 70% 30.26 in 10.0 mi SSE 9.2 mph - N/A   Clear
2:20 PM 77.0 °F - 68.0 °F 74% 30.25 in 10.0 mi SE 5.8 mph - N/A   Mostly Cloudy
2:40 PM 78.8 °F - 68.0 °F 69% 30.25 in 10.0 mi ESE 11.5 mph - N/A   Mostly Cloudy
3:00 PM 78.8 °F - 69.8 °F 74% 30.24 in 10.0 mi SSE 6.9 mph - N/A   Mostly Cloudy
3:20 PM 78.8 °F - 68.0 °F 69% 30.24 in 10.0 mi SSE 10.4 mph - N/A   Scattered Clouds
3:40 PM 80.6 °F 83.2 °F 68.0 °F 65% 30.23 in 10.0 mi SE 9.2 mph 17.3 mph N/A   Scattered Clouds
4:00 PM 78.8 °F - 69.8 °F 74% 30.23 in 10.0 mi SE 8.1 mph - N/A   Mostly Cloudy
4:20 PM 78.8 °F - 68.0 °F 69% 30.22 in 10.0 mi SSE 9.2 mph - N/A   Mostly Cloudy
4:40 PM 80.6 °F 83.9 °F 69.8 °F 70% 30.21 in 10.0 mi ESE 10.4 mph - N/A   Scattered Clouds
5:00 PM 80.6 °F 83.2 °F 68.0 °F 65% 30.20 in 10.0 mi SE 11.5 mph 16.1 mph N/A   Scattered Clouds
5:20 PM 78.8 °F - 69.8 °F 74% 30.20 in 10.0 mi SE 8.1 mph - N/A   Scattered Clouds
5:40 PM 80.6 °F 83.2 °F 68.0 °F 65% 30.19 in 10.0 mi SE 9.2 mph 17.3 mph N/A   Scattered Clouds
6:00 PM 78.8 °F - 68.0 °F 69% 30.19 in 10.0 mi SE 9.2 mph - N/A   Scattered Clouds
6:20 PM 78.8 °F - 68.0 °F 69% 30.18 in 10.0 mi SE 6.9 mph - N/A   Scattered Clouds
6:40 PM 78.8 °F - 68.0 °F 69% 30.18 in 10.0 mi SSE 10.4 mph 17.3 mph N/A   Clear
7:00 PM 77.0 °F - 68.0 °F 74% 30.18 in 10.0 mi SE 9.2 mph - N/A   Scattered Clouds
7:20 PM 77.0 °F - 66.2 °F 69% 30.19 in 10.0 mi SSE 5.8 mph - N/A   Scattered Clouds
7:40 PM 75.2 °F - 64.4 °F 69% 30.19 in 10.0 mi SSE 6.9 mph - N/A   Mostly Cloudy
8:00 PM 73.4 °F - 66.2 °F 78% 30.19 in 10.0 mi South 5.8 mph - N/A   Mostly Cloudy
8:20 PM 73.4 °F - 64.4 °F 73% 30.19 in 10.0 mi South 3.5 mph - N/A   Mostly Cloudy
8:40 PM 73.4 °F - 64.4 °F 73% 30.20 in 10.0 mi SSW 3.5 mph - N/A   Mostly Cloudy
9:00 PM 71.6 °F - 64.4 °F 78% 30.20 in 10.0 mi SW 4.6 mph - N/A   Scattered Clouds
9:20 PM 71.6 °F - 68.0 °F 88% 30.20 in 10.0 mi SW 4.6 mph - N/A   Clear
9:40 PM 71.6 °F - 68.0 °F 88% 30.21 in 10.0 mi SW 5.8 mph - N/A   Clear
10:00 PM 71.6 °F - 68.0 °F 88% 30.23 in 10.0 mi SW 5.8 mph - N/A   Scattered Clouds
10:20 PM 69.8 °F - 68.0 °F 94% 30.24 in 10.0 mi West 6.9 mph - N/A   Scattered Clouds
10:40 PM 68.0 °F - 68.0 °F 100% 30.24 in 10.0 mi WSW 4.6 mph - N/A   Mostly Cloudy
11:00 PM 69.8 °F - 68.0 °F 94% 30.24 in 10.0 mi SW 5.8 mph - N/A   Mostly Cloudy
11:20 PM 69.8 °F - 68.0 °F 94% 30.24 in 10.0 mi SW 6.9 mph - N/A   Clear
11:40 PM 69.8 °F - 68.0 °F 94% 30.24 in 10.0 mi SW 8.1 mph - N/A   Clear